Terminal Aerodrome Forecast
Issued by NWS

Home | Current Version | Previous Version | Text Only | Print | Product List | Glossary Off
Versions: 1 2 3 4 5 6 7 8 9 10 11 12 13 14 15 16

000
FTUS45 KGGW 180500
TAFSDY
TAF
KSDY 180520Z 1806/1906 VRB06KT P6SM OVC013
     FM181400 VRB03KT P6SM OVC007
     FM190300 VRB03KT P6SM OVC015
      AMD LTD TO CLD VIS AND WIND=

USA.gov is the U.S. government's official web portal to all federal, state and local government web resources and services.